Regional Weather Roundup
Issued by NWS

Home | Current Version | Previous Version | Graphics & Text | Print | Product List | Glossary On
Versions: 1 2 3 4 5 6 7 8 9 10 11 12 13 14 15 16 17 18 19 20 21 22 23 24 25 26 27
000
ASUS45 KSLC 221910
RWRUT

UTAH REGIONAL WEATHER ROUNDUP
NATIONAL WEATHER SERVICE SALT LAKE CITY UT
100 PM MDT FRI JUL 22 2016

UTZ001>011-023>025-222000-

NORTHERN UTAH

CITY           SKY/WX    TMP DP  RH WIND       PRES   REMARKS
BRIGHAM CITY     N/A     94  37  13 SW13      30.12F HX  90
HILL AFB       SUNNY     94  48  20 SW9       30.16F HX  90
LOGAN          SUNNY     93  46  19 SW3       30.12F
OGDEN          SUNNY     95  47  19 W6        30.13F HX  91
PROVO AIRPORT  MOSUNNY   97  52  21 E10       30.15F HX  94
SALT LAKE CITY MOSUNNY   97  44  16 NE5G16    30.09F THUNDER HX  93
VERNAL         SUNNY     86  49  27 MISG      30.24F
WENDOVER       SUNNY     93  30  10 E6        30.13F
HEBER CITY     MOSUNNY   91  43  18 SW17      30.22F

$$

UTZ012>022-026-027-222000-

SOUTHERN/CENTRAL UTAH

CITY           SKY/WX    TMP DP  RH WIND       PRES   REMARKS
BLANDING       SUNNY     86  49  28 SE6       30.41F
BRYCE CANYON   LGT RAIN  79  48  33 S13       30.47S
CEDAR CITY     SUNNY     93  43  17 S13G29    30.27S
DELTA          SUNNY     95  36  12 SW15G23   30.17F HX  90
MILFORD        SUNNY     97  40  14 S14G28    30.19F HX  92
MOAB/CYNLANDS  SUNNY     94  51  23 MISG      30.18F HX  91
PRICE          MOSUNNY   84  48  28 VRB3      30.31F
ST GEORGE      PTCLDY   102  45  14 W3        30.07F HX  98
KANAB          SUNNY     97  43  15 SE5       30.26F HX  92

$$

REGIONAL REPORTS     COLORADO/ARIZONA

CITY           SKY/WX    TMP DP  RH WIND       PRES   REMARKS
CRAIG, CO      SUNNY     87  42  20 W7        30.33F
GRAND JUNCTION SUNNY     90  50  25 VRB5      30.23F
RIFLE          CLOUDY    87  49  26 VRB6      30.28F
MONTROSE       CLOUDY    85  52  32 VRB5      30.33F
CORTEZ         SUNNY     88  49  25 VRB5      30.34F
PAGE, AZ       SUNNY     96  49  20 N7        30.18F HX  93
GRAND CANYON   MOSUNNY   88  44  21 VRB3      30.40F
KINGMAN        SUNNY    102  43  13 SW15G22   30.12F HX  97
FLAGSTAFF      MOSUNNY   82  49  31 VRB6      30.43F

$$

REGIONAL REPORTS    NEVADA/IDAHO/WYOMING

CITY           SKY/WX    TMP DP  RH WIND       PRES   REMARKS
LAS VEGAS, NV  MOSUNNY  108  34   8 S8        29.94F HX 101
ELY            SUNNY     89  30  12 SW15G25   30.30F
ELKO           SUNNY     88  19   8 SW12      30.24F
POCATELLO, ID  SUNNY     88  32  13 SW17      30.17S
BURLEY         SUNNY     82  37  20 W12G18    30.16F
EVANSTON, WY   CLOUDY    85  38  18 SW15G28   30.34F
ROCK SPRINGS   SUNNY     87  37  17 W8        30.33F
KEMMERER         N/A    N/A N/A N/A CALM      30.36F

$$




USA.gov is the U.S. government's official web portal to all federal, state and local government web resources and services.